Time,TemperatureF,DewpointF,PressureIn,WindDirection,WindDirectionDegrees,WindSpeedMPH,WindSpeedGustMPH,Humidity,HourlyPrecipIn,Conditions,Clouds,dailyrainin,SoftwareType,DateUTC
2013-06-08 00:10:00,73.7,73.0,30.02,East,98,3.0,5.0,99,0.00,,,0.68,weatherlink.com 1.10,2013-06-08 04:10:00,
2013-06-08 00:25:00,74.0,74.0,30.03,SSE,167,3.0,6.0,99,0.00,,,0.68,weatherlink.com 1.10,2013-06-08 04:25:00,
2013-06-08 00:40:00,74.3,74.0,30.03,South,176,0.0,5.0,99,0.00,,,0.68,weatherlink.com 1.10,2013-06-08 04:40:00,
2013-06-08 00:55:00,74.3,74.0,30.03,SSE,166,3.0,6.0,98,0.00,,,0.68,weatherlink.com 1.10,2013-06-08 04:55:00,
2013-06-08 01:10:00,74.3,74.0,30.03,South,171,1.0,5.0,98,0.00,,,0.68,weatherlink.com 1.10,2013-06-08 05:10:00,
2013-06-08 01:25:00,74.3,74.0,30.03,South,171,0.0,3.0,98,0.00,,,0.68,weatherlink.com 1.10,2013-06-08 05:25:00,
2013-06-08 01:40:00,74.4,74.0,30.03,South,171,0.0,1.0,99,0.00,,,0.68,weatherlink.com 1.10,2013-06-08 05:40:00,
2013-06-08 01:55:00,74.4,74.0,30.02,South,171,0.0,0.0,98,0.00,,,0.68,weatherlink.com 1.10,2013-06-08 05:55:00,
2013-06-08 02:10:00,74.4,74.0,30.02,South,171,0.0,0.0,98,0.00,,,0.68,weatherlink.com 1.10,2013-06-08 06:10:00,
2013-06-08 02:25:00,74.2,74.0,30.02,South,171,0.0,1.0,98,0.00,,,0.68,weatherlink.com 1.10,2013-06-08 06:25:00,
2013-06-08 02:40:00,74.3,74.0,30.02,South,171,0.0,1.0,98,0.00,,,0.68,weatherlink.com 1.10,2013-06-08 06:40:00,
2013-06-08 02:55:00,74.4,74.0,30.01,South,171,0.0,1.0,98,0.00,,,0.68,weatherlink.com 1.10,2013-06-08 06:55:00,
2013-06-08 03:10:00,74.2,74.0,30.01,South,171,0.0,0.0,98,0.00,,,0.68,weatherlink.com 1.10,2013-06-08 07:10:00,
2013-06-08 03:25:00,74.5,74.0,30.00,South,171,0.0,0.0,99,0.00,,,0.68,weatherlink.com 1.10,2013-06-08 07:25:00,
2013-06-08 03:40:00,74.4,74.0,30.00,South,171,0.0,0.0,99,0.00,,,0.68,weatherlink.com 1.10,2013-06-08 07:40:00,
2013-06-08 03:55:00,74.4,74.0,30.00,South,171,0.0,0.0,99,0.00,,,0.68,weatherlink.com 1.10,2013-06-08 07:55:00,
2013-06-08 04:10:00,74.3,74.0,30.00,South,171,0.0,0.0,98,0.00,,,0.68,weatherlink.com 1.10,2013-06-08 08:10:00,
2013-06-08 04:25:00,74.3,74.0,30.00,South,171,0.0,2.0,99,0.00,,,0.68,weatherlink.com 1.10,2013-06-08 08:25:00,
2013-06-08 04:40:00,74.2,74.0,30.00,South,171,0.0,2.0,98,0.00,,,0.68,weatherlink.com 1.10,2013-06-08 08:40:00,
2013-06-08 04:55:00,74.1,74.0,30.01,South,171,0.0,1.0,98,0.00,,,0.68,weatherlink.com 1.10,2013-06-08 08:55:00,
2013-06-08 05:10:00,74.0,74.0,30.01,South,171,0.0,1.0,99,0.00,,,0.68,weatherlink.com 1.10,2013-06-08 09:10:00,
2013-06-08 05:25:00,74.0,74.0,30.02,South,171,0.0,1.0,99,0.00,,,0.68,weatherlink.com 1.10,2013-06-08 09:25:00,
2013-06-08 05:40:00,74.0,74.0,30.03,South,171,0.0,1.0,99,0.00,,,0.68,weatherlink.com 1.10,2013-06-08 09:40:00,
2013-06-08 05:55:00,74.1,74.0,30.03,South,171,0.0,2.0,99,0.00,,,0.68,weatherlink.com 1.10,2013-06-08 09:55:00,
2013-06-08 06:10:00,74.2,74.0,30.03,South,171,0.0,2.0,99,0.00,,,0.68,weatherlink.com 1.10,2013-06-08 10:10:00,
2013-06-08 06:25:00,74.3,74.0,30.04,South,171,1.0,3.0,99,0.00,,,0.68,weatherlink.com 1.10,2013-06-08 10:25:00,
2013-06-08 06:40:00,74.3,74.0,30.04,South,171,0.0,3.0,99,0.00,,,0.68,weatherlink.com 1.10,2013-06-08 10:40:00,
2013-06-08 06:55:00,74.4,74.0,30.04,South,171,0.0,2.0,99,0.00,,,0.68,weatherlink.com 1.10,2013-06-08 10:55:00,
2013-06-08 07:10:00,74.5,74.0,30.05,South,171,0.0,2.0,99,0.00,,,0.68,weatherlink.com 1.10,2013-06-08 11:10:00,
2013-06-08 07:26:00,74.7,74.0,30.05,South,171,1.0,4.0,99,0.00,,,0.68,weatherlink.com 1.10,2013-06-08 11:26:00,
2013-06-08 07:41:00,75.0,75.0,30.06,South,171,0.0,0.0,99,0.00,,,0.68,weatherlink.com 1.10,2013-06-08 11:41:00,
2013-06-08 07:56:00,75.3,75.0,30.06,South,171,0.0,1.0,99,0.00,,,0.68,weatherlink.com 1.10,2013-06-08 11:56:00,
2013-06-08 08:11:00,75.7,75.0,30.07,South,171,0.0,1.0,99,0.00,,,0.68,weatherlink.com 1.10,2013-06-08 12:11:00,
2013-06-08 08:26:00,76.2,76.0,30.08,South,169,1.0,4.0,98,0.00,,,0.68,weatherlink.com 1.10,2013-06-08 12:26:00,
2013-06-08 08:41:00,76.5,76.0,30.09,ESE,108,4.0,5.0,98,0.00,,,0.68,weatherlink.com 1.10,2013-06-08 12:41:00,
2013-06-08 08:56:00,76.7,76.0,30.09,SE,124,0.0,4.0,96,0.00,,,0.68,weatherlink.com 1.10,2013-06-08 12:56:00,
2013-06-08 09:11:00,76.9,76.0,30.09,ESE,123,0.0,0.0,96,0.00,,,0.00,weatherlink.com 1.10,2013-06-08 13:11:00,
2013-06-08 09:26:00,77.2,76.0,30.09,SE,124,0.0,1.0,95,0.00,,,0.00,weatherlink.com 1.10,2013-06-08 13:26:00,
2013-06-08 09:41:00,77.2,76.0,30.09,SSE,150,4.0,7.0,95,0.03,,,0.03,weatherlink.com 1.10,2013-06-08 13:41:00,
2013-06-08 09:56:00,76.7,76.0,30.10,SE,127,2.0,4.0,96,0.13,,,0.13,weatherlink.com 1.10,2013-06-08 13:56:00,
2013-06-08 10:11:00,76.6,76.0,30.10,ENE,76,0.0,4.0,97,0.17,,,0.17,weatherlink.com 1.10,2013-06-08 14:11:00,
2013-06-08 10:26:00,76.4,76.0,30.11,SE,139,1.0,3.0,97,0.29,,,0.29,weatherlink.com 1.10,2013-06-08 14:26:00,
2013-06-08 10:41:00,76.1,75.0,30.12,ENE,57,3.0,11.0,97,0.73,,,0.76,weatherlink.com 1.10,2013-06-08 14:41:00,
2013-06-08 11:11:00,74.1,74.0,30.13,NNE,19,1.0,9.0,98,1.95,,,2.12,weatherlink.com 1.10,2013-06-08 15:11:00,
2013-06-08 11:17:00,-999.0,-99.9,30.13,North,-999,-999.0,-999.0,-999,0.00,,,0.00,weatherlink.com 1.10,2013-06-08 15:17:00,
2013-06-08 11:32:00,74.2,74.0,30.13,WNW,284,2.0,3.0,98,0.08,,,0.08,weatherlink.com 1.10,2013-06-08 15:32:00,
2013-06-08 11:47:00,74.3,74.0,30.13,NW,304,3.0,4.0,98,0.21,,,0.21,weatherlink.com 1.10,2013-06-08 15:47:00,
2013-06-08 12:02:00,74.1,74.0,30.13,WNW,300,4.0,7.0,98,0.22,,,0.22,weatherlink.com 1.10,2013-06-08 16:02:00,
2013-06-08 12:18:00,74.5,74.0,30.13,WNW,300,2.0,4.0,99,0.22,,,0.22,weatherlink.com 1.10,2013-06-08 16:18:00,
2013-06-08 12:33:00,74.6,74.0,30.13,WNW,301,1.0,4.0,99,0.13,,,0.22,weatherlink.com 1.10,2013-06-08 16:33:00,
2013-06-08 12:48:00,74.7,74.0,30.12,WNW,301,1.0,2.0,99,0.01,,,0.22,weatherlink.com 1.10,2013-06-08 16:48:00,
2013-06-08 13:03:00,75.0,75.0,30.11,WNW,301,0.0,2.0,99,0.00,,,0.22,weatherlink.com 1.10,2013-06-08 17:03:00,
2013-06-08 13:19:00,75.7,75.0,30.11,NE,49,2.0,3.0,99,0.00,,,0.22,weatherlink.com 1.10,2013-06-08 17:19:00,
2013-06-08 13:33:00,76.6,76.0,30.10,NE,50,3.0,4.0,99,0.00,,,0.22,weatherlink.com 1.10,2013-06-08 17:33:00,
2013-06-08 13:48:00,77.6,77.0,30.09,ENE,69,1.0,6.0,99,0.00,,,0.22,weatherlink.com 1.10,2013-06-08 17:48:00,
2013-06-08 14:03:00,78.9,78.0,30.09,ENE,59,1.0,10.0,98,0.01,,,0.23,weatherlink.com 1.10,2013-06-08 18:03:00,
2013-06-08 14:18:00,80.9,79.0,30.07,East,93,9.0,16.0,95,0.01,,,0.23,weatherlink.com 1.10,2013-06-08 18:18:00,
2013-06-08 14:33:00,82.1,77.0,30.07,NE,51,8.0,9.0,84,0.01,,,0.23,weatherlink.com 1.10,2013-06-08 18:33:00,
2013-06-08 14:48:00,83.9,78.0,30.06,East,98,3.0,8.0,81,0.01,,,0.23,weatherlink.com 1.10,2013-06-08 18:48:00,
2013-06-08 15:03:00,85.1,79.0,30.06,East,96,7.0,14.0,82,0.00,,,0.23,weatherlink.com 1.10,2013-06-08 19:03:00,
2013-06-08 15:18:00,84.3,79.0,30.06,SE,128,1.0,11.0,84,0.00,,,0.23,weatherlink.com 1.10,2013-06-08 19:18:00,
2013-06-08 15:33:00,84.4,79.0,30.05,ENE,57,4.0,14.0,83,0.00,,,0.23,weatherlink.com 1.10,2013-06-08 19:33:00,
2013-06-08 15:48:00,84.3,79.0,30.05,SE,124,4.0,11.0,83,0.00,,,0.23,weatherlink.com 1.10,2013-06-08 19:48:00,
2013-06-08 16:03:00,84.2,79.0,30.05,East,101,5.0,14.0,83,0.00,,,0.23,weatherlink.com 1.10,2013-06-08 20:03:00,
2013-06-08 16:18:00,84.1,78.0,30.07,East,90,5.0,12.0,82,0.00,,,0.23,weatherlink.com 1.10,2013-06-08 20:18:00,
2013-06-08 16:33:00,83.8,78.0,30.07,East,94,6.0,11.0,83,0.00,,,0.23,weatherlink.com 1.10,2013-06-08 20:33:00,
2013-06-08 16:48:00,83.8,78.0,30.07,East,86,1.0,5.0,82,0.00,,,0.23,weatherlink.com 1.10,2013-06-08 20:48:00,
2013-06-08 17:03:00,84.0,78.0,30.07,East,94,1.0,4.0,81,0.00,,,0.23,weatherlink.com 1.10,2013-06-08 21:03:00,
2013-06-08 17:18:00,84.1,78.0,30.07,ENE,77,2.0,6.0,81,0.00,,,0.23,weatherlink.com 1.10,2013-06-08 21:18:00,
2013-06-08 17:33:00,84.4,78.0,30.07,East,79,3.0,6.0,80,0.00,,,0.23,weatherlink.com 1.10,2013-06-08 21:33:00,
2013-06-08 17:48:00,84.2,77.0,30.07,East,86,3.0,7.0,80,0.00,,,0.23,weatherlink.com 1.10,2013-06-08 21:48:00,
2013-06-08 18:03:00,84.1,77.0,30.07,ENE,67,1.0,4.0,80,0.00,,,0.23,weatherlink.com 1.10,2013-06-08 22:03:00,
2013-06-08 18:18:00,83.9,78.0,30.08,SSE,148,2.0,7.0,81,0.00,,,0.23,weatherlink.com 1.10,2013-06-08 22:18:00,
2013-06-08 18:33:00,83.6,78.0,30.08,East,80,3.0,7.0,82,0.00,,,0.23,weatherlink.com 1.10,2013-06-08 22:33:00,
2013-06-08 18:48:00,83.2,78.0,30.08,ENE,70,0.0,6.0,83,0.00,,,0.23,weatherlink.com 1.10,2013-06-08 22:48:00,
2013-06-08 19:03:00,82.8,78.0,30.09,East,95,3.0,7.0,84,0.00,,,0.23,weatherlink.com 1.10,2013-06-08 23:03:00,
2013-06-08 19:19:00,82.4,78.0,30.09,ENE,76,1.0,8.0,86,0.00,,,0.23,weatherlink.com 1.10,2013-06-08 23:19:00,
2013-06-08 19:33:00,82.1,78.0,30.09,East,82,0.0,4.0,86,0.00,,,0.23,weatherlink.com 1.10,2013-06-08 23:33:00,
2013-06-08 19:48:00,82.0,78.0,30.09,East,82,0.0,4.0,86,0.00,,,0.23,weatherlink.com 1.10,2013-06-08 23:48:00,
2013-06-08 20:03:00,81.7,78.0,30.09,East,82,3.0,5.0,87,0.00,,,0.23,weatherlink.com 1.10,2013-06-09 00:03:00,
2013-06-08 20:18:00,81.4,78.0,30.10,East,81,1.0,5.0,88,0.00,,,0.23,weatherlink.com 1.10,2013-06-09 00:18:00,
2013-06-08 20:33:00,81.1,77.0,30.10,ENE,70,0.0,5.0,88,0.00,,,0.23,weatherlink.com 1.10,2013-06-09 00:33:00,
2013-06-08 20:48:00,80.9,78.0,30.10,ENE,71,0.0,3.0,89,0.00,,,0.23,weatherlink.com 1.10,2013-06-09 00:48:00,
2013-06-08 21:03:00,80.7,78.0,30.11,ENE,71,0.0,1.0,90,0.00,,,0.23,weatherlink.com 1.10,2013-06-09 01:03:00,
2013-06-08 21:18:00,80.4,77.0,30.12,ENE,71,0.0,1.0,90,0.00,,,0.23,weatherlink.com 1.10,2013-06-09 01:18:00,
2013-06-08 21:33:00,80.2,77.0,30.12,ENE,71,0.0,2.0,91,0.00,,,0.23,weatherlink.com 1.10,2013-06-09 01:33:00,
2013-06-08 21:48:00,80.0,77.0,30.12,ENE,71,0.0,2.0,91,0.00,,,0.23,weatherlink.com 1.10,2013-06-09 01:48:00,
2013-06-08 22:03:00,79.8,77.0,30.12,ENE,71,0.0,1.0,92,0.00,,,0.23,weatherlink.com 1.10,2013-06-09 02:03:00,
2013-06-08 22:18:00,79.6,77.0,30.13,ENE,71,0.0,2.0,92,0.00,,,0.23,weatherlink.com 1.10,2013-06-09 02:18:00,
2013-06-08 22:25:00,-999.0,-99.9,30.13,North,-999,-999.0,-999.0,-999,0.00,,,0.00,weatherlink.com 1.10,2013-06-09 02:25:00,
2013-06-08 22:40:00,79.4,77.0,30.13,ENE,71,0.0,1.0,93,0.00,,,0.00,weatherlink.com 1.10,2013-06-09 02:40:00,
2013-06-08 22:55:00,79.2,77.0,30.13,ENE,71,0.0,0.0,93,0.00,,,0.00,weatherlink.com 1.10,2013-06-09 02:55:00,
2013-06-08 23:10:00,78.7,77.0,30.13,ENE,71,0.0,0.0,94,0.00,,,0.00,weatherlink.com 1.10,2013-06-09 03:10:00,
2013-06-08 23:25:00,78.4,77.0,30.14,ENE,71,1.0,2.0,95,0.00,,,0.00,weatherlink.com 1.10,2013-06-09 03:25:00,
2013-06-08 23:40:00,76.2,74.0,30.16,NNW,338,9.0,15.0,94,0.49,,,0.49,weatherlink.com 1.10,2013-06-09 03:40:00,
2013-06-08 23:55:00,74.1,73.0,30.14,NW,306,3.0,12.0,96,0.96,,,0.96,weatherlink.com 1.10,2013-06-09 03:55:00,